COSMOS 886 DEB

Satellite information

Favourite Embed

Satellite Type and Status

DEBRISIN ORBIT

Key statistics

Satellite COSMOS 886 DEB at a glance.

Uptime

17669

Days in orbit

Revolutions

≈ 13.1

Per day

Orbit

LEO

Low Earth Orbit

Inclination

65.8

Latest

Satellite identification and parameters

Extended collection of information and parameters for COSMOS 886 DEB.

Object identification

Identified? True

Debris? True

Object name: COSMOS 886 DEB

International designator: 1976-126BE

Object number (NORAD): 9964

Object ID (CCSDS): 9964

Country: COMMONWEALTH OF INDEPENDENT STATES (CIS)

Current information (Y/N): Y

RCS size: SMALL

Orbital parameters

Period: 109.646 minutes

Inclination: 65.7742 deg

SMA: 7588.47 km

Apoapsis: 1819.607 km

Periapsis: 601.063 km

RAAN: 14.7168 deg

Eccentricy: 0.0802892

Argument of periapsis: 103.6234 deg

Mean anomaly: 265.544 deg

Mean motion: 13.13322607 rev/day

Mean motion (dot): 0.00003039 rev/day2

B* drag term: 0.0015967 1/REarth

Two-line elements (TLE)

Creation date: May 12, 2025, 7:41 p.m.

Reference frame: TEME

Reference center: EARTH

Epoch: May 12, 2025, 7:03 a.m. UTC

TLE line 0: 0 COSMOS 886 DEB

TLE line 1: 1 09964U 76126BE 25132.29415997 .00003039 00000-0 15967-2 0 9994

TLE line 2: 2 09964 65.7742 14.7168 0802892 103.6234 265.5440 13.13322607272900

Live tracking on map

Real-time ground track for satellite COSMOS 886 DEB.

In-orbit conjunctions

A list of the most updated potential collisions computed for object COSMOS 886 DEB.

Target Orbit TCA Probability of collision Miss distance Type
ORBCOMM FM 41 LEO 2024-12-12 04:16:45 0.0005852937 586.0 (m) PAYLOAD
TITAN 3C TRANSTAGE DEB LEO 2024-11-11 03:58:33 0.0001197086 759.0 (m) DEBRIS

Associated space launch

Second generation ASAT satellite

COSMOS 886 DEB was lifted into orbit during the mission ‘Tsiklon-2 | IS-A 4’, on board a Tsiklon-2 space rocket.

The launch took place on Dec. 27, 1976, 12:05 p.m. from 90.

For more information about the launch, click the button.

Launch to space Tsiklon-2 | IS-A 4
Tsiklon-2 | IS-A 4

Agency: N/A

Status: Launch Successful

Launch date: Dec. 27, 1976, 12:05 p.m. UTC

Rocket: Tsiklon-2

Launch pad: 90

Location: Baikonur Cosmodrome, Republic of Kazakhstan

...

Latest news about this satellite

There are no fresh news available about this satellite. Check back as we update our databases every day.


Newsletter sign-up

Weekly statistics, charts and insights to help you stay on top of the space industry.